Location: Bottenau
(48.5138°N, 8.0462°E)
Time: 21:06:46
(UTC+00:00)

Cosmos 1428 Rocket - Pass Details

Date: 18 April 2021
Orbit: 949 x 987 km, 82.9° (Epoch: 18 May)

Event Time Altitude Azimuth Distance (km) Brightness Sun altitude
Rises 19:26:31 0° 351° (N) 3,673 8.1 -10.3°
Reaches altitude 10° 19:29:02 10° 352° (N) 2,727 7.4 -10.7°
Maximum altitude 19:35:18 82° 80° (E) 993 4.5 -11.6°
Drops below altitude 10° 19:41:35 10° 169° (S) 2,732 6.4 -12.4°
Enters shadow 19:43:10 - 170° (S) 3,324 6.9 -12.7°
